Regional Weather Roundup
Issued by NWS

Home | Current Version | Previous Version | Graphics & Text | Print | Product List | Glossary Off
Versions: 1 2 3 4 5 6 7 8 9 10 11 12 13 14 15 16 17 18 19 20 21 22 23 24 25 26 27 28 29 30 31 32 33 34 35 36 37 38 39 40 41 42 43 44 45 46 47 48 49 50

000
ASUS43 KLSX 171657
RWRMO

WEATHER SUMMARY FOR MISSOURI
NATIONAL WEATHER SERVICE SPRINGFIELD MO
1200 PM CDT TUE OCT 17 2017

NOTE: "FAIR" INDICATES FEW OR NO CLOUDS BELOW 12,000 FEET WITH NO
       SIGNIFICANT WEATHER AND/OR OBSTRUCTIONS TO VISIBILITY.
       CURRENT SKY AND/OR WEATHER CONDITIONS ARE NOT AVAILABLE FOR
       CHILLICOTHE AND FARMINGTON.

MOZ001>031-035>038-043-044-053-054-171800-
...NORTHERN AND WESTERN MISSOURI...

CITY           SKY/WX    TMP DP  RH WIND       PRES   REMARKS
KANSAS CTY INT MOSUNNY   67  45  45 S18G24    30.18F
KANSAS C DTWN  SUNNY     67  44  43 S15       30.20F
LEE`S SUMMIT   SUNNY     65  45  48 S17       30.22F
ST JOSEPH      SUNNY     68  44  42 S15       30.15F
CHILLICOTHE      N/A     67  46  47 S12G17    30.20F

$$
MOZ066>068-077>081-088>096-101>105-171800-
...SOUTHWEST MISSOURI...

CITY           SKY/WX    TMP DP  RH WIND       PRES   REMARKS
SPRINGFIELD    SUNNY     65  44  46 S12       30.30F
JOPLIN         SUNNY     66  44  45 SW20      30.29F
BRANSON        PTSUNNY   63  37  39 SE8       30.34F

$$
MOZ032>034-039>042-045>050-055>058-069>072-171800-
...CENTRAL MISSOURI...

CITY           SKY/WX    TMP DP  RH WIND       PRES   REMARKS
COLUMBIA       SUNNY     64  45  49 S15G23    30.28F
JEFFERSON CITY SUNNY     64  41  42 S9        30.28F
ROLLA          MOSUNNY   62  41  46 S13       30.31F
SEDALIA        SUNNY     67  45  45 SW14G22   30.26F

$$
MOZ051-052-059>065-171800-
...EAST CENTRAL MISSOURI...

CITY           SKY/WX    TMP DP  RH WIND       PRES   REMARKS
ST LOUIS INTL  PTSUNNY   65  39  38 S10       30.32F
ST CHARLES     SUNNY     66  40  38 SW9       30.30F

$$
MOZ072>076-082>087-097>100-106>115-171800-
...SOUTH CENTRAL AND SOUTHEAST MISSOURI...

CITY           SKY/WX    TMP DP  RH WIND       PRES   REMARKS
CAPE GIRARDEAU SUNNY     63  41  44 S9        30.35F
POPLAR BLUFF   MOSUNNY   63  41  44 S8        30.35F
WEST PLAINS    MOSUNNY   61  37  41 S8        30.35F

$$


USA.gov is the U.S. government's official web portal to all federal, state and local government web resources and services.